EW7948 Weather Reports


time (UTC)temp
C
wind
direction
speed
KPH
gust
KPH
rain 1hr
cm
rain 24hr
cm
rain mn
cm
humidity
%
barometer
mb
20260504081524 18 180 6.4 14.5 0.00 0.00 0.00 36 1002.4
20260504050116 22 223 30.6 48.3 0.00 0.00 0.00 27 1002.6
20260504044600 23 226 17.7 40.2 0.00 0.00 0.00 19 1002.1
20260504043110 23 236 12.9 22.5 0.00 0.00 0.00 18 1001.8
20260504041558 23 342 12.9 32.2 0.00 0.00 0.00 17 1001.4
20260504040100 22 245 9.7 46.7 0.00 0.00 0.00 19 1001.8
20260504034600 21 261 0.0 3.2 0.00 0.00 0.00 22 1001.3
20260504033059 21 261 0.0 0.0 0.00 0.00 0.00 19 1001.2
20260504031604 22 262 0.0 4.8 0.00 0.00 0.00 20 1001.1
20260504030055 21 261 0.0 3.2 0.00 0.00 0.00 20 1001.1
20260504024556 22 257 3.2 8.0 0.00 0.00 0.00 28 1000.9
20260504023054 23 190 0.0 0.0 0.00 0.00 0.00 18 1000.8
20260504021554 23 190 0.0 0.0 0.00 0.00 0.00 16 1000.8
20260504020052 24 190 0.0 0.0 0.00 0.00 0.00 15 1000.9
20260504014558 25 190 0.0 0.0 0.00 0.00 0.00 15 1000.9
20260504013058 25 190 0.0 0.0 0.00 0.00 0.00 15 1001.1
20260504011551 25 190 0.0 4.8 0.00 0.00 0.00 14 1001.1
20260504010104 25 190 1.6 12.9 0.00 0.00 0.00 14 1001.2
20260504004548 26 173 4.8 12.9 0.00 0.00 0.00 14 1001.3
20260504003045 26 205 1.6 14.5 0.00 0.00 0.00 13 1001.7
20260504001556 26 196 3.2 12.9 0.00 0.00 0.00 14 1001.7
20260504000047 26 144 1.6 11.3 0.00 0.00 0.00 11 1001.8
20260503234543 26 123 0.0 6.4 0.00 0.00 0.00 12 1001.8
20260503233045 26 144 8.0 14.5 0.00 0.00 0.00 11 1002.0
20260503231543 27 146 9.7 24.1 0.00 0.00 0.00 11 1002.1
20260503230037 27 142 3.2 19.3 0.00 0.00 0.00 11 1002.4
20260503224540 28 184 11.3 17.7 0.00 0.00 0.00 11 1002.4
20260503223034 28 197 6.4 12.9 0.00 0.00 0.00 11 1002.6
20260503221535 28 138 6.4 17.7 0.00 0.00 0.00 9 1003.0
20260503220029 28 219 4.8 17.7 0.00 0.00 0.00 11 1003.4
20260503214532 26 150 6.4 20.9 0.00 0.00 0.00 11 1003.9
20260503213030 28 153 8.0 16.1 0.00 0.00 0.00 11 1004.3
20260503211523 28 287 1.6 24.1 0.00 0.00 0.00 9 1004.5
20260503210038 28 223 8.0 16.1 0.00 0.00 0.00 10 1005.1
20260503204517 27 5 6.4 12.9 0.00 0.00 0.00 11 1005.3
20260503203015 27 186 8.0 14.5 0.00 0.00 0.00 11 1005.7
20260503201511 28 207 6.4 17.7 0.00 0.00 0.00 12 1006.0
20260503200007 27 198 6.4 11.3 0.00 0.00 0.00 12 1006.3
20260503194506 25 30 1.6 12.9 0.00 0.00 0.00 13 1006.7
20260503193004 27 132 4.8 16.1 0.00 0.00 0.00 12 1007.0
20260503191502 27 172 3.2 16.1 0.00 0.00 0.00 12 1007.4
20260503190103 26 202 8.0 14.5 0.00 0.00 0.00 13 1007.7
20260503184556 25 225 1.6 6.4 0.00 0.00 0.00 13 1008.1
20260503183101 25 220 0.0 12.9 0.00 0.00 0.00 14 1008.5
20260503181547 24 76 6.4 11.3 0.00 0.00 0.00 15 1008.8
20260503180056 24 113 6.4 11.3 0.00 0.00 0.00 14 1009.1
20260503174543 24 223 1.6 12.9 0.00 0.00 0.00 14 1009.5
20260503173115 24 173 6.4 14.5 0.00 0.00 0.00 15 1009.7
20260503171536 22 78 3.2 16.1 0.00 0.00 0.00 16 1010.0